Weather History for Brookings, OR

Change the Weather History Date:

Tuesday, January 28, 2014

  Actual Average Record
Temperature  
Mean Temperature 54 °F -  
Max Temperature 59 °F 55 °F 80 °F (1984)
Min Temperature 50 °F 40 °F 29 °F (1979)
Degree Days  
Heating Degree Days 10    
Growing Degree Days 4 (Base 50)    
Moisture  
Dew Point 52 °F    
Average Humidity 94    
Maximum Humidity 100    
Minimum Humidity 72    
Precipitation  
Precipitation 0.61 in - - ()
Sea Level Pressure  
Sea Level Pressure 30.18 in    
Wind  
Wind Speed 4 mph (SE)    
Max Wind Speed 10 mph    
Max Gust Speed 17 mph    
Visibility 3 miles    
Events Fog , Rain    
Averages and records for this station are not official NWS values.
T = Trace of Precipitation, MM = Missing Value Source: NWS Daily Summary

Daily Weather History Graph

Daily Weather History Graph

Search for Another Location

Airport:

Trip Planner

Search our weather history database for the weather conditions in past years. The results will help you decide how hot, cold, wet, or windy it might be!

Date:

Astronomy

Jan. 28, 2014 Rise Set
Actual Time 7:33 AM PST 5:26 PM PST
Civil Twilight 7:03 AM PST 5:56 PM PST
Nautical Twilight 6:30 AM PST 6:30 PM PST
Astronomical Twilight 5:57 AM PST 7:03 PM PST
Moon 5:21 AM PST (1/28) 3:23 PM PST (1/28)
Length of Visible Light 10h 52m
Length of Day
9h 53m
Waning Crescent, 6% of the Moon is Illuminated
Jan 28
Waning Crescent
Jan 30
New
Feb 6
First Quarter
Feb 14
Full
Feb 22
Last Quarter

Hourly Weather History & Observations

Time (PST) Temp. Dew Point Humidity Pressure Visibility Wind Dir Wind Speed Gust Speed Precip Events Conditions
12:56 AM 50.0 °F 47.8 °F 92% 30.21 in 4.0 mi Calm Calm - 0.01 in Rain Light Rain
1:56 AM 50.0 °F 47.8 °F 92% 30.20 in 8.0 mi Variable 4.6 mph - 0.01 in Rain Light Rain
2:56 AM 50.0 °F 47.8 °F 92% 30.19 in 8.0 mi Variable 4.6 mph - 0.00 in   Overcast
3:56 AM 50.9 °F 47.8 °F 89% 30.19 in 10.0 mi Variable 4.6 mph - 0.00 in   Mostly Cloudy
4:56 AM 50.9 °F 48.9 °F 93% 30.18 in 10.0 mi Variable 3.5 mph - 0.00 in   Overcast
5:56 AM 50.9 °F 48.9 °F 93% 30.19 in 10.0 mi ESE 4.6 mph - 0.00 in   Overcast
6:47 AM 51.8 °F 48.2 °F 88% 30.19 in 10.0 mi Calm Calm - N/A   Overcast
6:56 AM 50.9 °F 48.9 °F 93% 30.19 in 10.0 mi Calm Calm - N/A   Overcast
7:26 AM 51.8 °F 48.2 °F 88% 30.20 in 10.0 mi Calm Calm - N/A   Overcast
7:56 AM 50.9 °F 48.9 °F 93% 30.20 in 8.0 mi Variable 3.5 mph - 0.00 in Rain Light Rain
8:35 AM 51.8 °F 48.2 °F 88% 30.20 in 8.0 mi Variable 4.6 mph - 0.00 in   Overcast
8:56 AM 52.9 °F 48.9 °F 86% 30.20 in 9.0 mi Variable 4.6 mph - 0.00 in   Overcast
9:05 AM 53.6 °F 48.2 °F 82% 30.19 in 9.0 mi Variable 4.6 mph - N/A   Overcast
9:56 AM 52.9 °F 48.9 °F 86% 30.20 in 6.0 mi SE 6.9 mph - N/A   Overcast
10:37 AM 53.6 °F 48.2 °F 82% 30.21 in 6.0 mi SSE 4.6 mph - N/A   Haze
10:56 AM 54.0 °F 48.9 °F 83% 30.21 in 6.0 mi SE 5.8 mph - N/A   Haze
11:56 AM 54.9 °F 50.0 °F 84% 30.20 in 5.0 mi South 5.8 mph - N/A   Haze
12:56 PM 59.0 °F 50.0 °F 72% 30.19 in 8.0 mi South 3.5 mph - N/A   Overcast
1:56 PM 57.9 °F 48.9 °F 72% 30.17 in 8.0 mi SSE 6.9 mph - N/A   Overcast
2:29 PM 55.4 °F 51.8 °F 88% 30.19 in 1.8 mi Variable 4.6 mph - N/A   Overcast
2:34 PM 53.6 °F 51.8 °F 94% 30.18 in 1.0 mi East 3.5 mph - N/A   Overcast
2:49 PM 53.6 °F 51.8 °F 94% 30.19 in 0.8 mi ESE 3.5 mph - 0.00 in Rain Light Rain
2:56 PM 54.0 °F 52.0 °F 93% 30.19 in 0.8 mi Variable 4.6 mph - 0.00 in Rain Light Rain
3:03 PM 53.6 °F 51.8 °F 94% 30.19 in 1.2 mi Variable 3.5 mph - 0.00 in Rain Light Rain
3:10 PM 53.6 °F 51.8 °F 94% 30.19 in 0.8 mi Variable 3.5 mph - 0.00 in Rain Light Rain
3:26 PM 53.6 °F 51.8 °F 94% 30.19 in 0.8 mi ESE 4.6 mph - 0.01 in Rain Light Rain
3:39 PM 53.6 °F 51.8 °F 94% 30.18 in 0.5 mi SE 3.5 mph - 0.02 in Fog , Rain Light Rain
3:56 PM 54.0 °F 52.9 °F 96% 30.19 in 1.0 mi Variable 5.8 mph - 0.03 in Rain Light Rain
4:02 PM 53.6 °F 53.6 °F 100% 30.18 in 1.2 mi SE 6.9 mph - 0.01 in Rain Light Rain
4:08 PM 53.6 °F 53.6 °F 100% 30.18 in 1.0 mi SE 6.9 mph - 0.01 in Rain Light Rain
4:18 PM 53.6 °F 51.8 °F 94% 30.18 in 0.8 mi SSE 5.8 mph - 0.02 in Rain Light Rain
4:34 PM 53.6 °F 53.6 °F 100% 30.18 in 1.0 mi SE 4.6 mph - 0.05 in Rain Light Rain
4:41 PM 53.6 °F 53.6 °F 100% 30.17 in 1.2 mi SE 6.9 mph - 0.05 in Rain Light Rain
4:44 PM 53.6 °F 53.6 °F 100% 30.17 in 1.0 mi SE 5.8 mph - 0.05 in Rain Light Rain
4:56 PM 54.0 °F 52.9 °F 96% 30.18 in 1.0 mi Variable 4.6 mph - 0.07 in Rain Light Rain
5:00 PM 53.6 °F 53.6 °F 100% 30.17 in 1.5 mi SE 5.8 mph - 0.00 in Rain Light Rain
5:04 PM 53.6 °F 53.6 °F 100% 30.17 in 2.0 mi Variable 5.8 mph - 0.00 in Rain Light Rain
5:09 PM 53.6 °F 53.6 °F 100% 30.17 in 1.2 mi Variable 5.8 mph - 0.00 in Rain Light Rain
5:14 PM 53.6 °F 53.6 °F 100% 30.16 in 0.8 mi Variable 6.9 mph - 0.00 in Rain Light Rain
5:22 PM 53.6 °F 53.6 °F 100% 30.16 in 1.0 mi ESE 5.8 mph - 0.00 in Rain Light Rain
5:25 PM 53.6 °F 53.6 °F 100% 30.16 in 1.0 mi ESE 5.8 mph - 0.00 in Rain Light Rain
5:29 PM 53.6 °F 53.6 °F 100% 30.16 in 1.2 mi Variable 4.6 mph - 0.00 in Rain Light Rain
5:40 PM 55.4 °F 53.6 °F 94% 30.16 in 1.0 mi SE 5.8 mph - 0.00 in Rain Light Rain
5:56 PM 54.9 °F 54.0 °F 97% 30.17 in 1.0 mi Variable 3.5 mph - 0.01 in Rain Light Rain
6:20 PM 55.4 °F 53.6 °F 94% 30.15 in 1.5 mi SE 4.6 mph - 0.07 in Rain Light Rain
6:48 PM 53.6 °F 53.6 °F 100% 30.15 in 1.2 mi SSE 5.8 mph - 0.08 in Rain Light Rain
6:56 PM 54.0 °F 54.0 °F 100% 30.15 in 1.2 mi Variable 4.6 mph - 0.09 in Rain Light Rain
7:24 PM 55.4 °F 53.6 °F 94% 30.16 in 1.0 mi Variable 6.9 mph - 0.00 in Rain Light Rain
7:31 PM 55.4 °F 53.6 °F 94% 30.16 in 0.8 mi Variable 5.8 mph - 0.02 in Rain Rain
7:42 PM 55.4 °F 53.6 °F 94% 30.15 in 1.2 mi SSE 4.6 mph - 0.04 in Rain Rain
7:56 PM 54.9 °F 54.0 °F 97% 30.17 in 1.5 mi SSE 3.5 mph - 0.05 in Rain Light Rain
8:06 PM 55.4 °F 53.6 °F 94% 30.16 in 1.0 mi South 8.1 mph - 0.02 in Rain Light Rain
8:16 PM 53.6 °F 53.6 °F 100% 30.16 in 0.5 mi SSE 5.8 mph - 0.03 in Fog , Rain Light Rain
8:27 PM 53.6 °F 53.6 °F 100% 30.17 in 0.2 mi SSE 8.1 mph - 0.03 in Fog , Rain Light Rain
8:56 PM 54.0 °F 52.9 °F 96% 30.18 in 0.2 mi Variable 6.9 mph - 0.06 in Fog , Rain Light Rain
9:34 PM 53.6 °F 53.6 °F 100% 30.17 in 0.5 mi SE 8.1 mph - 0.05 in Fog , Rain Light Rain
9:46 PM 53.6 °F 53.6 °F 100% 30.16 in 0.2 mi SE 10.4 mph - 0.06 in Fog , Rain Light Rain
9:56 PM 52.9 °F 52.9 °F 100% 30.16 in 0.2 mi SE 10.4 mph 16.1 mph 0.06 in Fog , Rain Light Rain
10:07 PM 53.6 °F 53.6 °F 100% 30.15 in 0.2 mi Variable 6.9 mph - 0.01 in Fog , Rain Light Rain
10:56 PM 52.9 °F 52.9 °F 100% 30.14 in 0.2 mi SE 9.2 mph - 0.05 in Fog , Rain Light Rain
11:09 PM 53.6 °F 53.6 °F 100% 30.14 in 0.5 mi SE 9.2 mph - 0.02 in Fog , Rain Light Rain
11:16 PM 53.6 °F 51.8 °F 94% 30.14 in 0.2 mi SSE 8.1 mph - 0.03 in Fog , Rain Light Rain
11:40 PM 51.8 °F 51.8 °F 100% 30.15 in 0.8 mi SSE 8.1 mph - 0.12 in Rain Rain
11:56 PM 52.0 °F 52.0 °F 100% 30.15 in 0.8 mi SE 8.1 mph 17.3 mph 0.17 in Rain Rain